Weather History for KMKC - January, 2014

Change the Weather History Date:

Friday, January 24, 2014

  Actual Average Record
Temperature  
Mean Temperature 28 °F -  
Max Temperature 46 °F 37 °F 61 °F (2015)
Min Temperature 10 °F 21 °F 1 °F (2008)
Degree Days  
Heating Degree Days 37    
Moisture  
Dew Point 3 °F    
Average Humidity 35    
Maximum Humidity 56    
Minimum Humidity 24    
Precipitation  
Precipitation 0.00 in - - ()
Sea Level Pressure  
Sea Level Pressure 30.19 in    
Wind  
Wind Speed 14 mph (SW)    
Max Wind Speed 24 mph    
Max Gust Speed 34 mph    
Visibility 10 miles    
Events Snow    
Averages and records for this station are not official NWS values.
T = Trace of Precipitation, MM = Missing Value Source: NWS Daily Summary

Daily Weather History Graph

Daily Weather History Graph

Search for Another Location

Airport or City:

Trip Planner

Search our weather history database for the weather conditions in past years. The results will help you decide how hot, cold, wet, or windy it might be!

Date:

Astronomy

Jan. 24, 2014 Rise Set
Actual Time 7:31 AM CST 5:30 PM CST
Civil Twilight 7:02 AM CST 5:58 PM CST
Nautical Twilight 6:30 AM CST 6:31 PM CST
Astronomical Twilight 5:58 AM CST 7:03 PM CST
Moon 1:00 AM CST (1/24) 11:48 AM CST (1/24)
Length of Visible Light 10h 56m
Length of Day
9h 58m
Last Quarter, 44% of the Moon is Illuminated
Jan 24
Last Quarter
Jan 30
New
Feb 6
First Quarter
Feb 14
Full
Feb 22
Last Quarter

Hourly Weather History & Observations

Time (CST) Temp. Windchill Dew Point Humidity Pressure Visibility Wind Dir Wind Speed Gust Speed Precip Events Conditions
12:54 AM 10.0 °F -1.9 °F -2.9 °F 56% 30.66 in 10.0 mi SSW 8.1 mph - N/A   Clear
1:54 AM 12.0 °F -0.4 °F -4.0 °F 49% 30.64 in 10.0 mi SW 9.2 mph - N/A   Clear
2:54 AM 12.0 °F -0.4 °F -5.1 °F 46% 30.62 in 10.0 mi SSW 9.2 mph - N/A   Clear
3:54 AM 12.0 °F -0.4 °F -5.1 °F 46% 30.58 in 10.0 mi SSW 9.2 mph - N/A   Clear
4:54 AM 10.0 °F -2.9 °F -4.0 °F 53% 30.54 in 10.0 mi SSW 9.2 mph - N/A   Clear
5:54 AM 12.9 °F -0.9 °F -4.0 °F 47% 30.47 in 10.0 mi SSW 11.5 mph 19.6 mph N/A   Clear
6:54 AM 15.1 °F -0.1 °F -5.1 °F 41% 30.43 in 10.0 mi SW 15.0 mph 23.0 mph N/A   Clear
7:54 AM 17.1 °F 3.0 °F -5.1 °F 37% 30.41 in 10.0 mi SW 13.8 mph 24.2 mph N/A   Clear
8:54 AM 18.0 °F 4.2 °F -4.0 °F 38% 30.37 in 10.0 mi SW 13.8 mph 25.3 mph N/A   Clear
9:54 AM 21.9 °F 7.3 °F -4.0 °F 32% 30.32 in 10.0 mi SW 18.4 mph 31.1 mph 0.00 in Snow Light Snow
10:29 AM 25.0 °F 11.3 °F -2.9 °F 30% 30.27 in 10.0 mi SW 18.4 mph 27.6 mph 0.00 in   Clear
10:54 AM 27.0 °F 12.2 °F -2.0 °F 29% 30.26 in 10.0 mi SSW 24.2 mph 32.2 mph 0.00 in   Clear
11:54 AM 30.9 °F 18.7 °F 1.0 °F 28% 30.20 in 10.0 mi SW 19.6 mph 34.5 mph N/A   Clear
12:54 PM 34.0 °F 21.8 °F 1.9 °F 26% 30.12 in 10.0 mi SSW 23.0 mph 34.5 mph N/A   Clear
1:54 PM 37.9 °F 27.3 °F 3.9 °F 24% 30.05 in 10.0 mi SW 21.9 mph 31.1 mph N/A   Clear
2:54 PM 39.9 °F 30.0 °F 6.1 °F 25% 30.00 in 10.0 mi WSW 21.9 mph 32.2 mph N/A   Clear
3:54 PM 42.1 °F 33.9 °F 9.0 °F 26% 29.99 in 10.0 mi WSW 17.3 mph 28.8 mph N/A   Scattered Clouds
4:54 PM 41.0 °F 33.9 °F 10.0 °F 28% 29.97 in 10.0 mi SW 12.7 mph 23.0 mph N/A   Overcast
5:54 PM 41.0 °F 33.1 °F 10.0 °F 28% 29.96 in 10.0 mi WSW 15.0 mph - N/A   Clear
6:54 PM 42.1 °F 33.3 °F 10.9 °F 28% 29.91 in 10.0 mi SW 19.6 mph 28.8 mph N/A   Mostly Cloudy
7:54 PM 42.1 °F 33.1 °F 12.9 °F 31% 29.87 in 10.0 mi SW 20.7 mph 29.9 mph N/A   Scattered Clouds
8:54 PM 43.0 °F 35.1 °F 14.0 °F 31% 29.84 in 10.0 mi SW 17.3 mph 27.6 mph N/A   Overcast
9:54 PM 45.0 °F 38.2 °F 16.0 °F 31% 29.82 in 10.0 mi SW 15.0 mph 25.3 mph N/A   Overcast
10:54 PM 46.0 °F 39.3 °F 17.1 °F 31% 29.78 in 10.0 mi SW 16.1 mph - N/A   Overcast
11:54 PM 46.0 °F 39.9 °F 17.1 °F 31% 29.77 in 10.0 mi WSW 13.8 mph 21.9 mph N/A   Overcast